TimePST,TemperatureF,Dew PointF,Humidity,Sea Level PressureIn,VisibilityMPH,Wind Direction,Wind SpeedMPH,Gust SpeedMPH,PrecipitationIn,Events,Conditions,WindDirDegrees,DateUTC
12:53 AM,7.0,1.9,80,30.33,10.0,North,4.6,-,N/A,,Clear,10,2013-12-04 08:53:00
1:53 AM,8.1,3.0,80,30.33,10.0,Calm,Calm,-,N/A,,Clear,0,2013-12-04 09:53:00
2:53 AM,8.1,3.0,80,30.33,10.0,Calm,Calm,-,N/A,,Clear,0,2013-12-04 10:53:00
3:53 AM,6.1,3.0,87,30.33,10.0,NNW,3.5,-,N/A,,Clear,330,2013-12-04 11:53:00
4:53 AM,7.0,3.0,84,30.34,10.0,Calm,Calm,-,N/A,,Clear,0,2013-12-04 12:53:00
5:53 AM,7.0,3.0,84,30.35,10.0,NNW,5.8,-,N/A,,Clear,340,2013-12-04 13:53:00
6:53 AM,10.9,5.0,77,30.36,10.0,North,3.5,-,N/A,,Clear,10,2013-12-04 14:53:00
7:53 AM,12.0,6.1,77,30.36,10.0,North,5.8,-,N/A,,Clear,10,2013-12-04 15:53:00
8:53 AM,19.0,9.0,65,30.36,10.0,North,4.6,-,N/A,,Clear,360,2013-12-04 16:53:00
9:53 AM,21.9,7.0,53,30.38,10.0,ENE,5.8,-,N/A,,Partly Cloudy,60,2013-12-04 17:53:00
10:53 AM,23.0,6.1,48,30.38,10.0,Variable,3.5,-,N/A,,Overcast,0,2013-12-04 18:53:00
11:53 AM,25.0,7.0,46,30.35,10.0,NNE,8.1,-,N/A,,Partly Cloudy,30,2013-12-04 19:53:00
12:53 PM,25.0,6.1,45,30.34,10.0,NW,4.6,-,N/A,,Partly Cloudy,320,2013-12-04 20:53:00
1:53 PM,26.1,1.9,35,30.33,10.0,NNE,3.5,-,N/A,,Clear,20,2013-12-04 21:53:00
2:53 PM,25.0,1.0,36,30.33,10.0,Calm,Calm,-,N/A,,Clear,0,2013-12-04 22:53:00
3:53 PM,21.9,1.9,42,30.34,10.0,Calm,Calm,-,N/A,,Clear,0,2013-12-04 23:53:00
4:53 PM,12.9,3.0,65,30.35,10.0,Calm,Calm,-,N/A,,Clear,0,2013-12-05 00:53:00
5:53 PM,10.9,3.0,70,30.36,10.0,Calm,Calm,-,N/A,,Clear,0,2013-12-05 01:53:00
6:53 PM,8.1,1.9,76,30.35,10.0,Calm,Calm,-,N/A,,Clear,0,2013-12-05 02:53:00
7:53 PM,7.0,1.0,77,30.35,10.0,Calm,Calm,-,N/A,,Clear,0,2013-12-05 03:53:00
8:53 PM,10.9,5.0,77,30.35,10.0,Calm,Calm,-,N/A,,Overcast,0,2013-12-05 04:53:00
9:53 PM,12.9,8.1,81,30.34,10.0,Calm,Calm,-,N/A,,Overcast,0,2013-12-05 05:53:00
10:53 PM,10.9,6.1,81,30.35,10.0,Calm,Calm,-,N/A,,Overcast,0,2013-12-05 06:53:00
11:53 PM,12.9,7.0,77,30.34,10.0,SE,3.5,-,N/A,,Overcast,140,2013-12-05 07:53:00